PHASE 3B (AO-10)

Last updated on Sun Aug 09 2026 00:03:15 GMT+0000 (Coordinated Universal Time)

1 14129U 83058B 26219.35102171 -.00000102 00000+0 00000+0 0 9993 2 14129 25.9556 211.1612 5994015 129.7142 300.6610 2.05870164296549
UTC large
Height (km)
Speed (km/s)
/
Latitude / Longitude
Inclination (degrees)
Orbital Period (minutes)
Azimuth
Elevation
Range (km)
Doppler Factor

Next 0 passes for location: London (51.5072 / 0.1276)

No passes found over London.
PHASE 3B (AO-10)